Dauntless Aviation
Greetings, Guest! To participate, [sign up for a free account] or [log in]
Airports Europe France
LFBD
BOD

Merignac

Bordeaux, FRANCE

Airport Info
Edit

Location

Latitude / Longitude: 44°49'41"N / 0°42'56"W
  44°49.698'N / 0°42.936'W
  44.8283 / -0.7156

Nearby radio navigation aids

BD BORDEAUX NDB. 228.2° 9.2nm from BD to field.
BDX BORDEAUX VORTAC on field.
BE BORDEAUX NDB. 262.1° 13.8nm from BE to field.
NB BORDEAUX NDB. 202.9° 20.4nm from NB to field.

Runway Information

Runway 05 /23

Dimensions: 10171 x 148 ft.
Surface: ASP
 
Runway 05
Runway 23
Latitude: 44.819103 44.838694
Longitude: -0.728983 -0.701
Elevation: 160 ft. 160 ft.
Runway true heading: 42.9 222.9
 

Runway 11 /29

Dimensions: 7923 x 148 ft.
Surface: ASP
 
Runway 11
Runway 29
Latitude: 44.831567 44.825411
Longitude: -0.729242 -0.699897
Elevation: 153 ft. 153 ft.
Runway true heading: 103.9 283.9
 

Instrument Procedures

Departure Procedures

  Arrival and Departure

IAPs (Instrument Approach Procedures)

  Assorted Information for LFBD
  Instrument Approach Chart
  Visual Approach Chart
  Visual Approach Chart (Helicopter)
Satellite photo at:
Airport distance calculator
From:
Weather Reports

METAR

LFBD

LFBD 311100Z AUTO VRB05KT 9999 NSC 26/13 Q1015
LFBC
25.4nm S
LFBC 311100Z AUTO VRB05KT 9999 NSC 26/16 Q1016

TAF

LFBD
TAF AMD LFBD 310644Z 3106/0112 30005KT CAVOK PROB30 TEMPO 3106/3108 3000 MIFG BKN002 BECMG 0108/0110 21010KT BKN030
LFBC
25.4nm S
TAF LFBC 310500Z 3106/0106 VRB02KT 0800 BCFG SCT002 BECMG 3106/3108 9999 NSW SCT015 BECMG 3111/3113 30010KT TEMPO 0104/0106 VRB02KT 3000 BR
Safelog

 

Dauntless Aviation

© 2007-2014 Dauntless Aviation, all rights reserved
Information provided via PilotNav comes from a variety of official and unofficial data sources. As errors are possible, do not use PilotNav for primary flight planning purposes. Verify any information that you receive via PilotNav with current and canonical charts and other official documents. The material in this database is subject to database copyrights held by Dauntless Aviation and may not be copied without the express permission of Dauntless Aviation - licenses for use of part of all of this data are available for purchase; enquire via the Dauntless Aviation helpdesk. A number of mechanisms and markers exist in the database to protect against and identify infringement / copyright. Automated queries against this website are stictly prohibited, and all activity is logged and analyzed.